HST
1 20580U 90037B   25011.73216282  .00007952  00000-0  32626-3 0  9999
2 20580  28.4699  23.2823 0002725 160.5173 199.5525 15.22358735708792
ISS (ZARYA)
1 25544U 98067A   25011.77840788  .00015066  00000-0  26200-3 0  9999
2 25544  51.6405   1.8052 0006463  70.5355 348.3003 15.50995620490908
CXO
1 25867U 99040B   25010.77007610  .00000454  00000-0  00000-0 0  9999
2 25867  45.9725 138.0735 8652246 306.0969   0.2177  0.37805379 15347